{"data":{"norad_id":60521,"epoch":"2026-07-21T12:59:06.126432Z","epoch_age_seconds":5555697,"freshness":"OLD","line1":"1 60521U 24149BF  26202.54104313  .10981040  25523-5  30307-3 0  9998","line2":"2 60521  97.3689 301.9473 0013492 271.8896  88.0860 16.44354617108577","mean_motion":16.44354617,"eccentricity":0.0013492,"inclination_deg":97.3689,"raan_deg":301.9473,"arg_perigee_deg":271.8896,"mean_anomaly_deg":88.086,"bstar":0.00030307,"rev_number":10857,"period_min":87.5723511895,"perigee_km":145.43070675991,"apogee_km":163.05768417776,"semimajor_km":6532.3811954688,"source":"CELESTRAK","updated_at":"2026-07-22T09:00:23.755764Z"}}